Volver al catálogo

STARLINK-4430

ActivoComunicacionesSSO
NORAD 53485·PAYLOAD·🇺🇸 United States

Lanzado Aug 12, 2022 desde Vandenberg Space Force Base

Loading…

Próximos Pases (próximas 24 horas)

TLE

ActualizadoSource: CelesTrak SupGP

Época: Sep 14, 2026, 14:02 UTC

1 53485C 22099W   26257.58520833  .00016102  00000+0  97997-3 0  2573
2 53485  97.2857  11.7278 0001419  85.0506 194.4644 15.10502034    14

Sigue STARLINK-4430 en tiempo real con AllMySat

Download on the App Store